| time (UTC) | temp F | wind direction | speed MPH | gust MPH | rain 1hr in | rain 24hr in | rain mn in | humidity % | barometer mb |
| 20260510140016 | 62 | 23 | 3.0 | 6.0 | 0.00 | 0.04 | 0.04 | 57 | 1018.8 |
| 20260510135016 | 62 | 338 | 3.0 | 6.0 | 0.00 | 0.04 | 0.04 | 62 | 1018.6 |
| 20260510134016 | 61 | 23 | 2.0 | 5.0 | 0.01 | 0.04 | 0.04 | 64 | 1018.7 |
| 20260510133016 | 60 | 0 | 3.0 | 6.0 | 0.01 | 0.04 | 0.04 | 65 | 1018.9 |
| 20260510132016 | 59 | 0 | 2.0 | 5.0 | 0.01 | 0.04 | 0.04 | 69 | 1019.0 |
| 20260510131016 | 59 | 293 | 1.0 | 4.0 | 0.01 | 0.04 | 0.04 | 74 | 1018.8 |
| 20260510130016 | 58 | 315 | 1.0 | 2.0 | 0.01 | 0.04 | 0.04 | 77 | 1018.4 |
| 20260510125016 | 57 | 0 | 2.0 | 4.0 | 0.01 | 0.04 | 0.04 | 78 | 1018.4 |
| 20260510124036 | 57 | 338 | 2.0 | 4.0 | 0.00 | 0.03 | 0.03 | 81 | 1018.3 |
| 20260510123016 | 57 | 0 | 1.0 | 3.0 | 0.00 | 0.03 | 0.03 | 83 | 1018.0 |
| 20260510122036 | 56 | 338 | 2.0 | 3.0 | 0.00 | 0.03 | 0.03 | 83 | 1018.0 |
| 20260510121036 | 56 | 338 | 2.0 | 3.0 | 0.00 | 0.03 | 0.03 | 85 | 1018.1 |
| 20260510120016 | 56 | 293 | 1.0 | 4.0 | 0.00 | 0.03 | 0.03 | 87 | 1018.0 |
| 20260510115016 | 56 | 270 | 1.0 | 3.0 | 0.00 | 0.03 | 0.03 | 88 | 1017.7 |
| 20260510114016 | 55 | 293 | 1.0 | 4.0 | 0.00 | 0.03 | 0.03 | 88 | 1017.3 |
| 20260510113016 | 55 | 315 | 1.0 | 3.0 | 0.00 | 0.03 | 0.03 | 88 | 1017.0 |
| 20260510112015 | 55 | 338 | 2.0 | 4.0 | 0.00 | 0.03 | 0.03 | 86 | 1016.6 |
| 20260510111016 | 56 | 338 | 1.0 | 3.0 | 0.00 | 0.03 | 0.03 | 85 | 1016.4 |
| 20260510110036 | 56 | 338 | 1.0 | 3.0 | 0.00 | 0.03 | 0.03 | 84 | 1016.3 |
| 20260510105015 | 56 | 0.0 | 2.0 | 0.00 | 0.03 | 0.03 | 84 | 1016.1 | |
| 20260510104137 | 56 | 338 | 1.0 | 3.0 | 0.00 | 0.03 | 0.03 | 83 | 1015.9 |
| 20260510103017 | 56 | 315 | 2.0 | 4.0 | 0.00 | 0.03 | 0.03 | 83 | 1015.8 |
| 20260510102017 | 57 | 338 | 2.0 | 4.0 | 0.00 | 0.03 | 0.03 | 82 | 1015.6 |
| 20260510101018 | 57 | 23 | 2.0 | 5.0 | 0.00 | 0.03 | 0.03 | 83 | 1015.7 |
| 20260510100139 | 57 | 315 | 1.0 | 3.0 | 0.00 | 0.03 | 0.03 | 83 | 1015.6 |
| 20260510095018 | 57 | 315 | 1.0 | 2.0 | 0.00 | 0.03 | 0.03 | 83 | 1015.4 |
| 20260510094027 | 57 | 315 | 1.0 | 3.0 | 0.00 | 0.03 | 0.03 | 83 | 1015.4 |
| 20260510093017 | 58 | 0.0 | 2.0 | 0.00 | 0.03 | 0.03 | 83 | 1015.4 | |
| 20260510092038 | 58 | 270 | 1.0 | 3.0 | 0.00 | 0.03 | 0.03 | 83 | 1015.4 |
| 20260510091017 | 58 | 0.0 | 1.0 | 0.00 | 0.03 | 0.03 | 83 | 1015.1 | |
| 20260510090027 | 58 | 0.0 | 0.0 | 0.00 | 0.03 | 0.03 | 83 | 1014.9 | |
| 20260510085018 | 58 | 0.0 | 0.0 | 0.00 | 0.03 | 0.03 | 83 | 1014.9 | |
| 20260510084027 | 58 | 0.0 | 0.0 | 0.00 | 0.03 | 0.03 | 84 | 1014.7 | |
| 20260510083017 | 59 | 0.0 | 0.0 | 0.00 | 0.03 | 0.03 | 84 | 1014.5 | |
| 20260510082039 | 59 | 0.0 | 0.0 | 0.00 | 0.03 | 0.03 | 84 | 1014.4 | |
| 20260510081017 | 59 | 0.0 | 0.0 | 0.00 | 0.03 | 0.03 | 85 | 1014.1 | |
| 20260510080018 | 59 | 0.0 | 0.0 | 0.00 | 0.03 | 0.03 | 86 | 1014.0 | |
| 20260510075017 | 59 | 0.0 | 0.0 | 0.00 | 0.03 | 0.03 | 86 | 1013.6 | |
| 20260510074018 | 59 | 0.0 | 0.0 | 0.00 | 0.03 | 0.03 | 86 | 1013.7 | |
| 20260510073017 | 60 | 270 | 1.0 | 2.0 | 0.00 | 0.03 | 0.03 | 86 | 1013.7 |
| 20260510072057 | 60 | 270 | 1.0 | 2.0 | 0.00 | 0.03 | 0.03 | 86 | 1013.6 |
| 20260510071017 | 60 | 0.0 | 0.0 | 0.00 | 0.03 | 0.03 | 87 | 1013.3 | |
| 20260510070018 | 60 | 0.0 | 0.0 | 0.00 | 0.03 | 0.03 | 87 | 1013.4 | |
| 20260510065017 | 60 | 0.0 | 0.0 | 0.01 | 0.03 | 0.03 | 87 | 1013.4 | |
| 20260510064038 | 60 | 180 | 1.0 | 2.0 | 0.01 | 0.03 | 0.03 | 87 | 1013.6 |
| 20260510063017 | 60 | 23 | 2.0 | 6.0 | 0.02 | 0.03 | 0.03 | 87 | 1013.4 |
| 20260510062017 | 61 | 135 | 1.0 | 3.0 | 0.02 | 0.03 | 0.03 | 87 | 1013.4 |
| 20260510061017 | 61 | 225 | 2.0 | 5.0 | 0.03 | 0.03 | 0.03 | 87 | 1013.2 |
| 20260510060017 | 61 | 180 | 1.0 | 4.0 | 0.03 | 0.03 | 0.03 | 87 | 1012.3 |
| 20260510055017 | 61 | 338 | 2.0 | 4.0 | 0.02 | 0.02 | 0.02 | 88 | 1012.8 |
| 20260510054018 | 61 | 0 | 1.0 | 4.0 | 0.02 | 0.02 | 0.02 | 88 | 1012.9 |
| 20260510053017 | 61 | 0.0 | 2.0 | 0.01 | 0.01 | 0.01 | 87 | 1013.0 | |
| 20260510052538 | 61 | 0.0 | 1.0 | 0.01 | 0.01 | 0.01 | 87 | 1012.9 | |
| 20260510051517 | 61 | 45 | 1.0 | 3.0 | 0.00 | 0.00 | 0.00 | 87 | 1013.0 |
| 20260510050517 | 61 | 293 | 2.0 | 4.0 | 0.00 | 0.00 | 0.00 | 87 | 1013.2 |
| 20260510045518 | 62 | 338 | 2.0 | 5.0 | 0.00 | 0.00 | 0.00 | 87 | 1013.0 |
| 20260510044518 | 62 | 0 | 3.0 | 6.0 | 0.00 | 0.00 | 0.00 | 86 | 1013.5 |
| 20260510043518 | 62 | 293 | 2.0 | 8.0 | 0.00 | 0.00 | 0.00 | 85 | 1013.0 |
| 20260510042517 | 63 | 0 | 3.0 | 6.0 | 0.00 | 0.00 | 0.00 | 84 | 1012.5 |
| 20260510041517 | 63 | 338 | 3.0 | 8.0 | 0.00 | 0.01 | 0.00 | 83 | 1012.5 |
| 20260510040518 | 64 | 0 | 4.0 | 10.0 | 0.00 | 0.03 | 0.00 | 81 | 1012.8 |
| 20260510035517 | 65 | 0 | 4.0 | 9.0 | 0.00 | 0.07 | 0.00 | 79 | 1012.6 |
| 20260510034517 | 66 | 0 | 5.0 | 11.0 | 0.00 | 0.12 | 0.00 | 74 | 1012.6 |
| 20260510033517 | 65 | 293 | 3.0 | 11.0 | 0.00 | 0.17 | 0.00 | 74 | 1012.4 |
| 20260510032517 | 65 | 0.0 | 0.0 | 0.00 | 0.25 | 0.00 | 73 | 1010.9 | |
| 20260510031517 | 65 | 0.0 | 0.0 | 0.00 | 0.30 | 0.00 | 73 | 1010.8 | |
| 20260510030527 | 65 | 0.0 | 0.0 | 0.00 | 0.35 | 0.00 | 71 | 1010.7 | |
| 20260510025517 | 66 | 0.0 | 0.0 | 0.00 | 0.41 | 0.00 | 70 | 1010.5 | |
| 20260510024558 | 66 | 0.0 | 0.0 | 0.00 | 0.46 | 0.00 | 69 | 1010.5 | |
| 20260510023517 | 66 | 0.0 | 0.0 | 0.00 | 0.53 | 0.00 | 67 | 1010.3 | |
| 20260510022517 | 67 | 0.0 | 0.0 | 0.00 | 0.54 | 0.00 | 65 | 1010.2 | |
| 20260510021538 | 67 | 0.0 | 0.0 | 0.00 | 0.55 | 0.00 | 64 | 1010.0 | |
| 20260510020517 | 68 | 0.0 | 0.0 | 0.00 | 0.55 | 0.00 | 62 | 1009.9 | |
| 20260510015517 | 68 | 0.0 | 0.0 | 0.00 | 0.55 | 0.00 | 62 | 1009.6 | |
| 20260510014538 | 69 | 0.0 | 0.0 | 0.00 | 0.55 | 0.00 | 60 | 1009.6 | |
| 20260510013517 | 70 | 0.0 | 0.0 | 0.00 | 0.55 | 0.00 | 59 | 1009.5 | |
| 20260510012517 | 71 | 0.0 | 0.0 | 0.00 | 0.55 | 0.00 | 56 | 1009.4 | |
| 20260510011517 | 72 | 0.0 | 0.0 | 0.00 | 0.55 | 0.00 | 55 | 1009.3 | |
| 20260510010537 | 73 | 0.0 | 0.0 | 0.00 | 0.55 | 0.00 | 54 | 1009.3 | |
| 20260510005518 | 74 | 0.0 | 0.0 | 0.00 | 0.57 | 0.00 | 53 | 1009.2 | |
| 20260510004518 | 75 | 0.0 | 0.0 | 0.00 | 0.58 | 0.00 | 50 | 1009.1 | |
| 20260510003517 | 76 | 0.0 | 0.0 | 0.00 | 0.58 | 0.00 | 49 | 1009.1 | |
| 20260510002517 | 78 | 0.0 | 1.0 | 0.00 | 0.58 | 0.00 | 45 | 1009.0 | |
| 20260510001517 | 79 | 0.0 | 1.0 | 0.00 | 0.58 | 0.00 | 42 | 1008.9 | |
| 20260510000517 | 81 | 293 | 1.0 | 2.0 | 0.00 | 0.58 | 0.00 | 39 | 1008.9 |
| 20260509235518 | 81 | 293 | 1.0 | 2.0 | 0.00 | 0.58 | 0.00 | 38 | 1008.9 |
| 20260509234517 | 81 | 293 | 1.0 | 3.0 | 0.00 | 0.58 | 0.00 | 36 | 1008.9 |
| 20260509233517 | 82 | 0 | 1.0 | 4.0 | 0.00 | 0.58 | 0.00 | 38 | 1008.9 |
| 20260509232538 | 82 | 315 | 2.0 | 5.0 | 0.00 | 0.58 | 0.00 | 36 | 1008.8 |
| 20260509231517 | 82 | 180 | 2.0 | 6.0 | 0.00 | 0.58 | 0.00 | 35 | 1008.8 |
| 20260509230517 | 82 | 293 | 2.0 | 5.0 | 0.00 | 0.58 | 0.00 | 37 | 1008.9 |
| 20260509225538 | 81 | 225 | 3.0 | 6.0 | 0.00 | 0.58 | 0.00 | 36 | 1008.8 |
| 20260509224517 | 82 | 293 | 3.0 | 7.0 | 0.00 | 0.58 | 0.00 | 36 | 1008.8 |
| 20260509223557 | 82 | 180 | 2.0 | 5.0 | 0.00 | 0.58 | 0.00 | 37 | 1008.8 |
| 20260509222527 | 82 | 338 | 3.0 | 7.0 | 0.00 | 0.58 | 0.00 | 35 | 1008.9 |
| 20260509221517 | 82 | 270 | 2.0 | 9.0 | 0.00 | 0.58 | 0.00 | 36 | 1008.9 |
| 20260509220517 | 82 | 0 | 3.0 | 6.0 | 0.00 | 0.58 | 0.00 | 36 | 1008.9 |
| 20260509215517 | 81 | 293 | 3.0 | 8.0 | 0.00 | 0.58 | 0.00 | 37 | 1008.8 |
| 20260509214517 | 82 | 0 | 4.0 | 8.0 | 0.00 | 0.58 | 0.00 | 36 | 1008.9 |
| 20260509213517 | 82 | 270 | 3.0 | 9.0 | 0.00 | 0.58 | 0.00 | 36 | 1008.9 |
| 20260509212518 | 81 | 113 | 3.0 | 9.0 | 0.00 | 0.58 | 0.00 | 36 | 1008.9 |
| 20260509211517 | 81 | 203 | 2.0 | 7.0 | 0.00 | 0.58 | 0.00 | 38 | 1009.0 |
| 20260509210537 | 81 | 248 | 2.0 | 7.0 | 0.00 | 0.58 | 0.00 | 37 | 1009.1 |
| 20260509205517 | 82 | 203 | 4.0 | 9.0 | 0.00 | 0.58 | 0.00 | 36 | 1009.2 |
| 20260509204537 | 81 | 23 | 2.0 | 9.0 | 0.00 | 0.58 | 0.00 | 38 | 1009.2 |
| 20260509203517 | 82 | 23 | 3.0 | 10.0 | 0.00 | 0.58 | 0.00 | 37 | 1009.3 |
| 20260509202517 | 81 | 180 | 3.0 | 7.0 | 0.00 | 0.58 | 0.00 | 38 | 1009.3 |
| 20260509201517 | 81 | 0 | 3.0 | 7.0 | 0.00 | 0.58 | 0.00 | 39 | 1009.4 |
| 20260509200516 | 82 | 315 | 4.0 | 9.0 | 0.00 | 0.58 | 0.00 | 37 | 1009.6 |
| 20260509195516 | 81 | 270 | 3.0 | 8.0 | 0.00 | 0.58 | 0.00 | 40 | 1009.6 |
| 20260509194517 | 80 | 293 | 5.0 | 9.0 | 0.00 | 0.58 | 0.00 | 39 | 1009.6 |
| 20260509193547 | 81 | 293 | 4.0 | 10.0 | 0.00 | 0.58 | 0.00 | 40 | 1009.6 |
| 20260509192517 | 81 | 315 | 3.0 | 9.0 | 0.00 | 0.58 | 0.00 | 40 | 1009.7 |
| 20260509191537 | 81 | 315 | 3.0 | 7.0 | 0.00 | 0.58 | 0.00 | 42 | 1009.6 |
| 20260509190516 | 80 | 293 | 3.0 | 7.0 | 0.00 | 0.58 | 0.00 | 43 | 1009.6 |
| 20260509185517 | 79 | 338 | 3.0 | 8.0 | 0.00 | 0.58 | 0.00 | 46 | 1009.6 |
| 20260509184517 | 79 | 23 | 4.0 | 9.0 | 0.00 | 0.58 | 0.00 | 45 | 1009.7 |
| 20260509183638 | 79 | 113 | 2.0 | 5.0 | 0.00 | 0.58 | 0.00 | 50 | 1009.8 |
| 20260509182517 | 77 | 315 | 4.0 | 9.0 | 0.00 | 0.58 | 0.00 | 47 | 1009.8 |
| 20260509181537 | 77 | 315 | 3.0 | 14.0 | 0.00 | 0.58 | 0.00 | 48 | 1009.7 |
| 20260509180516 | 76 | 180 | 3.0 | 7.0 | 0.00 | 0.58 | 0.00 | 49 | 1009.8 |
| 20260509175517 | 77 | 0 | 3.0 | 6.0 | 0.00 | 0.58 | 0.00 | 49 | 1009.9 |
| 20260509174516 | 76 | 203 | 3.0 | 6.0 | 0.00 | 0.58 | 0.00 | 51 | 1010.1 |
| 20260509173517 | 75 | 315 | 3.0 | 8.0 | 0.00 | 0.58 | 0.00 | 54 | 1010.3 |
| 20260509172516 | 74 | 45 | 4.0 | 8.0 | 0.00 | 0.58 | 0.00 | 57 | 1010.3 |
| 20260509171517 | 73 | 180 | 3.0 | 9.0 | 0.00 | 0.58 | 0.00 | 58 | 1010.4 |
| 20260509170517 | 72 | 113 | 3.0 | 8.0 | 0.00 | 0.58 | 0.00 | 60 | 1010.5 |
| 20260509165516 | 72 | 180 | 3.0 | 7.0 | 0.00 | 0.58 | 0.00 | 60 | 1010.5 |
| 20260509164517 | 71 | 135 | 3.0 | 7.0 | 0.00 | 0.58 | 0.00 | 63 | 1010.6 |
| 20260509163516 | 70 | 158 | 3.0 | 8.0 | 0.00 | 0.58 | 0.00 | 65 | 1010.7 |
| 20260509162516 | 69 | 158 | 4.0 | 7.0 | 0.00 | 0.58 | 0.00 | 65 | 1010.7 |
| 20260509161538 | 69 | 225 | 2.0 | 5.0 | 0.00 | 0.58 | 0.00 | 70 | 1010.8 |
| 20260509160516 | 68 | 203 | 2.0 | 5.0 | 0.00 | 0.58 | 0.00 | 71 | 1010.6 |
| 20260509155516 | 67 | 180 | 3.0 | 6.0 | 0.00 | 0.58 | 0.00 | 73 | 1010.6 |
| 20260509154518 | 66 | 180 | 3.0 | 6.0 | 0.00 | 0.58 | 0.00 | 76 | 1010.6 |
| 20260509153516 | 65 | 180 | 2.0 | 5.0 | 0.00 | 0.58 | 0.00 | 79 | 1010.5 |
| 20260509152518 | 64 | 68 | 2.0 | 6.0 | 0.00 | 0.58 | 0.00 | 81 | 1010.5 |
| 20260509151516 | 63 | 180 | 3.0 | 8.0 | 0.00 | 0.58 | 0.00 | 82 | 1010.4 |
| 20260509150516 | 62 | 203 | 3.0 | 7.0 | 0.00 | 0.58 | 0.00 | 83 | 1010.5 |
| 20260509145516 | 62 | 203 | 2.0 | 6.0 | 0.00 | 0.58 | 0.00 | 85 | 1010.4 |
| 20260509144516 | 62 | 158 | 2.0 | 5.0 | 0.00 | 0.58 | 0.00 | 86 | 1010.3 |
| 20260509143516 | 61 | 270 | 2.0 | 5.0 | 0.00 | 0.58 | 0.00 | 87 | 1010.4 |
| 20260509142516 | 60 | 203 | 2.0 | 5.0 | 0.00 | 0.58 | 0.00 | 88 | 1010.4 |
| 20260509141516 | 59 | 203 | 3.0 | 8.0 | 0.00 | 0.58 | 0.00 | 88 | 1010.3 |